TimeEDT,TemperatureF,Dew PointF,Humidity,Sea Level PressureIn,VisibilityMPH,Wind Direction,Wind SpeedMPH,Gust SpeedMPH,PrecipitationIn,Events,Conditions,WindDirDegrees,DateUTC
12:16 AM,66.2,64.4,94,30.04,4.0,Calm,Calm,-,N/A,,Overcast,0,2013-07-12 04:16:00
12:36 AM,64.4,64.4,100,30.03,4.0,Calm,Calm,-,N/A,,Overcast,0,2013-07-12 04:36:00
12:56 AM,64.4,64.4,100,30.02,3.0,NNW,3.5,-,N/A,,Unknown,340,2013-07-12 04:56:00
1:16 AM,64.4,64.4,100,30.02,10.0,ENE,3.5,-,N/A,,Clear,60,2013-07-12 05:16:00
1:36 AM,64.4,64.4,100,30.04,5.0,Calm,Calm,-,N/A,,Scattered Clouds,0,2013-07-12 05:36:00
1:56 AM,64.4,64.4,100,30.04,4.0,Calm,Calm,-,N/A,,Scattered Clouds,0,2013-07-12 05:56:00
2:16 AM,64.4,64.4,100,30.04,2.5,SW,3.5,-,N/A,,Overcast,220,2013-07-12 06:16:00
2:37 AM,64.4,64.4,100,30.05,3.0,SSE,4.6,-,N/A,,Overcast,160,2013-07-12 06:37:00
2:57 AM,64.4,64.4,100,30.05,2.5,Calm,Calm,-,N/A,,Overcast,0,2013-07-12 06:57:00
3:17 AM,64.4,64.4,100,30.04,3.0,Calm,Calm,-,N/A,,Unknown,0,2013-07-12 07:17:00
3:37 AM,64.4,62.6,94,30.03,7.0,North,3.5,-,N/A,,Clear,350,2013-07-12 07:37:00
3:57 AM,64.4,62.6,94,30.03,7.0,Calm,Calm,-,N/A,,Clear,0,2013-07-12 07:57:00
4:17 AM,64.4,62.6,94,30.03,7.0,Calm,Calm,-,N/A,,Clear,0,2013-07-12 08:17:00
4:37 AM,64.4,62.6,94,30.03,10.0,Calm,Calm,-,N/A,,Clear,0,2013-07-12 08:37:00
4:57 AM,64.4,62.6,94,30.03,7.0,Calm,Calm,-,N/A,,Scattered Clouds,0,2013-07-12 08:57:00
5:17 AM,64.4,62.6,94,30.02,5.0,NW,3.5,-,N/A,,Mostly Cloudy,320,2013-07-12 09:17:00
5:37 AM,64.4,62.6,94,30.02,4.0,NNW,4.6,-,N/A,,Scattered Clouds,340,2013-07-12 09:37:00
5:57 AM,64.4,62.6,94,30.03,7.0,Calm,Calm,-,N/A,,Scattered Clouds,0,2013-07-12 09:57:00
6:17 AM,64.4,62.6,94,30.04,7.0,Calm,Calm,-,N/A,,Clear,0,2013-07-12 10:17:00
6:37 AM,64.4,62.6,94,30.04,5.0,Calm,Calm,-,N/A,,Scattered Clouds,0,2013-07-12 10:37:00
6:57 AM,64.4,62.6,94,30.04,5.0,NNW,3.5,-,N/A,,Scattered Clouds,340,2013-07-12 10:57:00
7:17 AM,64.4,62.6,94,30.05,7.0,Calm,Calm,-,N/A,,Clear,0,2013-07-12 11:17:00
7:37 AM,64.4,62.6,94,30.06,10.0,NNW,3.5,-,N/A,,Clear,340,2013-07-12 11:37:00
7:57 AM,64.4,60.8,88,30.07,10.0,Calm,Calm,-,N/A,,Clear,0,2013-07-12 11:57:00
8:17 AM,64.4,60.8,88,30.08,10.0,Calm,Calm,-,N/A,,Clear,0,2013-07-12 12:17:00
8:37 AM,66.2,60.8,83,30.08,10.0,Calm,Calm,-,N/A,,Clear,0,2013-07-12 12:37:00
8:57 AM,66.2,60.8,83,30.08,10.0,Calm,Calm,-,N/A,,Clear,0,2013-07-12 12:57:00
9:17 AM,68.0,60.8,78,30.08,10.0,Calm,Calm,-,N/A,,Clear,0,2013-07-12 13:17:00
9:37 AM,68.0,60.8,78,30.09,10.0,Calm,Calm,-,N/A,,Clear,0,2013-07-12 13:37:00
9:57 AM,69.8,60.8,73,30.09,10.0,NNW,3.5,-,N/A,,Clear,330,2013-07-12 13:57:00
10:17 AM,69.8,60.8,73,30.09,10.0,North,3.5,-,N/A,,Clear,360,2013-07-12 14:17:00
10:37 AM,69.8,60.8,73,30.09,10.0,North,5.8,-,N/A,,Clear,360,2013-07-12 14:37:00
10:58 AM,69.8,60.8,73,30.09,10.0,North,8.1,-,N/A,,Clear,10,2013-07-12 14:58:00
11:18 AM,69.8,60.8,73,30.10,10.0,NNE,4.6,-,N/A,,Scattered Clouds,20,2013-07-12 15:18:00
11:38 AM,69.8,60.8,73,30.10,10.0,NNE,3.5,-,N/A,,Mostly Cloudy,30,2013-07-12 15:38:00
11:58 AM,69.8,62.6,78,30.11,10.0,Calm,Calm,-,N/A,,Mostly Cloudy,0,2013-07-12 15:58:00
12:18 PM,69.8,62.6,78,30.11,7.0,Calm,Calm,-,N/A,,Mostly Cloudy,0,2013-07-12 16:18:00
12:38 PM,69.8,62.6,78,30.11,10.0,Calm,Calm,-,N/A,,Mostly Cloudy,0,2013-07-12 16:38:00
12:58 PM,69.8,60.8,73,30.10,10.0,North,4.6,-,N/A,,Mostly Cloudy,360,2013-07-12 16:58:00
1:18 PM,69.8,62.6,78,30.11,10.0,North,5.8,-,N/A,,Scattered Clouds,360,2013-07-12 17:18:00
1:38 PM,69.8,62.6,78,30.11,10.0,North,6.9,-,N/A,,Scattered Clouds,10,2013-07-12 17:38:00
1:58 PM,69.8,62.6,78,30.11,10.0,North,4.6,-,N/A,,Scattered Clouds,10,2013-07-12 17:58:00
2:18 PM,71.6,62.6,73,30.10,10.0,Calm,Calm,-,N/A,,Scattered Clouds,0,2013-07-12 18:18:00
2:38 PM,71.6,62.6,73,30.10,10.0,ENE,5.8,-,N/A,,Scattered Clouds,60,2013-07-12 18:38:00
2:58 PM,71.6,62.6,73,30.09,10.0,North,4.6,-,N/A,,Scattered Clouds,10,2013-07-12 18:58:00
3:18 PM,71.6,62.6,73,30.09,10.0,NE,6.9,-,N/A,,Clear,40,2013-07-12 19:18:00
3:38 PM,73.4,62.6,69,30.09,10.0,North,6.9,-,N/A,,Clear,10,2013-07-12 19:38:00
3:58 PM,73.4,62.6,69,30.08,10.0,North,6.9,-,N/A,,Scattered Clouds,10,2013-07-12 19:58:00
4:18 PM,73.4,62.6,69,30.09,10.0,NNE,6.9,-,N/A,,Scattered Clouds,20,2013-07-12 20:18:00
4:38 PM,73.4,62.6,69,30.08,10.0,NNE,6.9,-,N/A,,Clear,20,2013-07-12 20:38:00
4:58 PM,71.6,62.6,73,30.09,10.0,NNE,3.5,-,N/A,,Scattered Clouds,30,2013-07-12 20:58:00
5:18 PM,71.6,62.6,73,30.09,10.0,Calm,Calm,-,N/A,,Mostly Cloudy,0,2013-07-12 21:18:00
5:38 PM,71.6,62.6,73,30.09,10.0,Calm,Calm,-,N/A,,Overcast,0,2013-07-12 21:38:00
5:58 PM,71.6,62.6,73,30.09,10.0,Calm,Calm,-,N/A,,Overcast,0,2013-07-12 21:58:00
6:18 PM,73.4,64.4,73,30.08,10.0,Calm,Calm,-,N/A,,Mostly Cloudy,0,2013-07-12 22:18:00
6:38 PM,73.4,64.4,73,30.09,10.0,Calm,Calm,-,N/A,,Mostly Cloudy,0,2013-07-12 22:38:00
6:58 PM,73.4,64.4,73,30.09,10.0,Calm,Calm,-,N/A,,Mostly Cloudy,0,2013-07-12 22:58:00
7:18 PM,73.4,64.4,73,30.09,10.0,Calm,Calm,-,N/A,,Mostly Cloudy,0,2013-07-12 23:18:00
7:38 PM,71.6,64.4,78,30.10,10.0,Calm,Calm,-,N/A,,Overcast,0,2013-07-12 23:38:00
7:59 PM,69.8,66.2,88,30.11,4.0,Calm,Calm,-,N/A,,Overcast,0,2013-07-12 23:59:00
8:19 PM,69.8,66.2,88,30.11,10.0,Calm,Calm,-,N/A,,Mostly Cloudy,0,2013-07-13 00:19:00
8:39 PM,69.8,66.2,88,30.11,10.0,Calm,Calm,-,N/A,,Mostly Cloudy,0,2013-07-13 00:39:00
8:59 PM,69.8,66.2,88,30.10,7.0,Calm,Calm,-,N/A,,Mostly Cloudy,0,2013-07-13 00:59:00
9:19 PM,69.8,68.0,94,30.11,10.0,Calm,Calm,-,N/A,,Mostly Cloudy,0,2013-07-13 01:19:00
9:39 PM,69.8,68.0,94,30.12,7.0,Calm,Calm,-,N/A,,Mostly Cloudy,0,2013-07-13 01:39:00
9:59 PM,69.8,68.0,94,30.12,7.0,Calm,Calm,-,N/A,,Mostly Cloudy,0,2013-07-13 01:59:00
10:19 PM,68.0,68.0,100,30.12,4.0,Calm,Calm,-,N/A,,Mostly Cloudy,0,2013-07-13 02:19:00
10:39 PM,68.0,68.0,100,30.13,5.0,Calm,Calm,-,N/A,,Mostly Cloudy,0,2013-07-13 02:39:00
10:59 PM,68.0,68.0,100,30.13,4.0,Calm,Calm,-,N/A,,Mostly Cloudy,0,2013-07-13 02:59:00
11:19 PM,68.0,68.0,100,30.14,4.0,Calm,Calm,-,N/A,,Mostly Cloudy,0,2013-07-13 03:19:00
11:39 PM,68.0,68.0,100,30.14,5.0,Calm,Calm,-,N/A,,Overcast,0,2013-07-13 03:39:00
11:59 PM,68.0,68.0,100,30.14,1.5,Calm,Calm,-,N/A,,Overcast,0,2013-07-13 03:59:00